Regional Weather Roundup
Issued by NWS Sioux Falls, SD

Home | Current Version | Previous Version | Graphics & Text | Print | Product List | Glossary Off
Versions: 1 2 3 4 5 6 7 8 9 10 11 12 13 14 15 16 17 18 19 20 21 22 23 24 25 26 27 28 29 30 31 32 33 34 35 36 37 38 39 40 41 42 43 44 45 46 47 48 49 50

000
ASUS43 KFSD 231102
RWRFSD

WEATHER ROUNDUP FOR SE SOUTH DAKOTA/SW MINNESOTA/NW IOWA
NATIONAL WEATHER SERVICE SIOUX FALLS SD
600 AM CDT SAT MAY 23 2015

NOTE: "FAIR" INDICATES FEW OR NO CLOUDS BELOW 12,000 FEET WITH NO
SIGNIFICANT WEATHER AND OR OBSTRUCTIONS TO VISIBILITY.


SDZ038>040-050-052>070-231200-
SOUTHEAST SOUTH DAKOTA

CITY           SKY/WX    TMP DP  RH WIND       PRES   REMARKS
BROOKINGS      CLOUDY    54  46  76 E3        30.22S
CHAMBERLAIN    NOT AVBL
HURON          CLOUDY    52  47  83 SE6       30.19S
MADISON        LGT RAIN  50  50 100 CALM      30.21S
MITCHELL       LGT RAIN  52  49  89 E9        30.18S
SIOUX FALLS    LGT RAIN  54  49  83 S5        30.20R
WINNER         LGT RAIN  51  48  89 SE10      30.11F FOG
YANKTON        CLOUDY    54  48  82 E5        30.17F
$$

MNZ071-072-080-081-089-090-097-098-231200-
SOUTHWEST MINNESOTA

CITY           SKY/WX    TMP DP  RH WIND       PRES   REMARKS
FAIRMONT       CLOUDY    55  45  67 NE9       30.24F
JACKSON        CLOUDY    54  52  94 E6        30.23S
LUVERNE        LGT RAIN  55  48  76 S3        30.22S
MARSHALL       CLOUDY    54  43  66 SE3       30.23S
MONTEVIDEO     MOCLDY    52  46  82 S3        30.24S
REDWOOD FALLS  CLOUDY    53  45  74 SW5       30.25R
TRACY          DRIZZLE   56  47  73 CALM      30.24R
WINDOM         CLOUDY    54  48  82 CALM      30.23F
WORTHINGTON    CLOUDY    54  45  71 S7        30.23S
$$

IAZ001>003-012>014-020>022-031-032-NEZ013-014-SDZ071-231200-
NORTHWEST IOWA

CITY           SKY/WX    TMP DP  RH WIND       PRES   REMARKS
DENISON        CLOUDY    54  52  94 SE5       30.19S
ESTHERVILLE    CLOUDY    52  48  86 E7        30.23S
SIOUX CITY     CLOUDY    56  50  80 E8        30.19F
SPENCER        CLOUDY    55  50  83 SE5       30.23R
$$

ABBREVIATIONS USED IN REMARKS
   TC - TEMPERATURE IN CELSIUS
  WCI - WIND CHILL INDEX
   HX - HEAT INDEX
  VSB - VISIBILITY



USA.gov is the U.S. government's official web portal to all federal, state and local government web resources and services.